Weather in Dadu

Pakistan     26°43′49″N   67°46′13″E
temp.,
°C
wind,
m/s
gust,
m/s
humid.,
%
clouds,
%
prec.,
mm/h
press.,
hPa
HPBL,
m
24 october, sun
sun2423:00+27nnw33110 0.0 100939
02:00+25nnw33150 0.0 100930
05:00+23nnw47250 0.0 1010114
08:00+24n57360 0.0 1012303
11:00+31ne46220 0.0 10131500
14:00+34ene44190 0.0 10102880
17:00+33ene44180 0.0 1010623
20:00+28ene410250 0.0 1012177
25 october, mon
mon2523:00+26se12280 0.0 101359
02:00+25nnw33290 0.0 101336
05:00+23nne47370 0.0 1014116
08:00+24ne34410 0.0 1016177
11:00+29nne22330 0.0 10161181
14:00+32n22240 0.0 10132185
17:00+32nw22230 0.0 10122244
20:00+27e11300 0.0 101311
26 october, tue
tue2623:00+26ssw11330 0.0 101311
02:00+25ene01350 0.0 101111
05:00+24ssw11370 0.0 101211
08:00+26sse23320 0.0 101494
11:00+32ssw32220 0.0 10131356
14:00+35sw32160 0.0 10102369
17:00+34s33150 0.0 1009146
20:00+30s46204 0.0 101187
27 october, wed
wed2723:00+28s46235 0.0 101279
02:00+27s34250 0.0 101152
05:00+25s22270 0.0 101213
08:00+28wnw11240 0.0 101455
11:00+33nnw22170 0.0 10151000
14:00+35wnw11140 0.0 10112672
17:00+35wsw22140 0.0 101182
20:00+30sw22190 0.0 101211
28 october, thu
thu2823:00+28ese23210 0.0 101319
02:00+26ese22220 0.0 101211
05:00+25se11250 0.0 101211
08:00+28wnw01220 0.0 101432
11:00+33w22160 0.0 1014906
14:00+36wsw32120 0.0 10112942
17:00+35sse12110 0.0 101020
20:00+30se22150 0.0 101211